www.pogodaiklimat.ru

Погода и климат >> Архив погоды >> Кипр >> Акротири


ПОГОДА на Акротири

  • Прогноз погоды на Акротири
  • Монитор погоды на Акротири

АРХИВ ПОГОДЫ на Акротири

Время (UTC), дата Ветер
(напр.,м/с)
 
Видим.   Явления Облачность Т
(С)
Тd
(С)
f
(%)
Тe
(С)
Тes
(С)
Комфортность P
(гПа)
Po
(гПа)
Тmin
(С)
Tmax
(С)
R
(мм)
R24
(мм)
S
(см)
22 8.09 З 4 30 км ясно +25.3 +21.7 80 +32 +32 очень
душно
1008.1 1005.1
23 8.09 З 5 30 км ясно +25.2 +21.5 80 +32 +32 очень
душно
1007.9 1004.9
00 9.09 З 3 30 км ясно +24.8 +19.6 73 +30 +30 душно 1007.6 1004.6
01 9.09 ЮЗ 3 30 км ясно +23.8 +18.6 73 +28 +28 душно 1007.6 1004.6
02 9.09 СВ 1 30 км 1/1 450 м
[Sc]
+22.6 +18.1 76 +28 +28 душно 1007.8 1004.8
03 9.09 СЗ 2 30 км 1/1 600 м
[Sc]
+22.6 +18.8 79 +28 +28 душно 1007.9 1004.9
04 9.09 С 1 30 км 1/1 600 м
[Sc]
+22.2 +17.4 74 +27 +27 душно 1008.1 1005.1
05 9.09 З 1 30 км ясно +24.9 +18.5 68 +30 +32 душно 1008.6 1005.6
06 9.09 З 2 25 км 1/1 360 м
[Cu Sc]
+27.2 +20.1 65 +33 +38 очень
душно
1009.0 1006.0 +21.9
07 9.09 З 5 25 км ясно +27.5 +22.7 75 +36 +42 очень
душно
1009.0 1006.0
08 9.09 ЮЗ 5 20 км ясно +28.9 +22.7 69 +38 +46 очень
душно
1009.1 1006.1
09 9.09 З 5 20 км 1/1 900 м
[Cu hum]
+29.3 +22.1 65 +38 +46 очень
душно
1008.7 1005.7
10 9.09 ЮЗ 5 20 км 1/1 900 м
[Cu hum]
+29.8 +22.9 67 +40 +47 очень
душно
1008.3 1005.4
11 9.09 ЮЗ 5 20 км 1/1 900 м
[Cu hum]
+29.8 +22.3 64 +39 +46 очень
душно
1008.1 1005.1
12 9.09 З 6 20 км 1/1 1050 м
[Cu Sc]
+29.8 +22.8 66 +39 +44 очень
душно
1007.9 1005.0
13 9.09 З 6 20 км 1/1 1050 м
[Cu Sc Ac cast]
+28.7 +23.0 71 +38 +41 очень
душно
1007.8 1004.8
14 9.09 З 6 25 км 1/1 1050 м
[Cu Sc Ci ing]
+29.1 +23.1 70 +39 +40 очень
душно
1007.6 1004.7
15 9.09 З 6 25 км 1/1 1050 м
[Cu hum]
+27.8 +23.4 77 +38 +38 очень
душно
1007.5 1004.5
16 9.09 З 5 25 км ясно +26.9 +23.1 80 +36 +36 очень
душно
1007.3 1004.3
17 9.09 З 6 20 км ясно +26.2 +23.1 83 +35 +35 очень
душно
1007.5 1004.5
18 9.09 З 6 20 км ясно +25.9 +23.1 85 +35 +35 очень
душно
1007.9 1004.9 +30.8
19 9.09 З 4 20 км ясно +25.7 +23.1 86 +34 +34 очень
душно
1008.2 1005.2
20 9.09 З 5 15 км ясно +25.5 +23.3 88 +34 +34 очень
душно
1008.4 1005.4
21 9.09 З 5 15 км ясно +25.4 +23.2 88 +34 +34 очень
душно
1008.2 1005.2
22 9.09 З 5 20 км ясно +25.2 +22.9 87 +33 +33 очень
душно
1008.1 1005.1
23 9.09 З 4 20 км ясно +25.1 +22.7 87 +33 +33 очень
душно
1007.7 1004.7
00 10.09 З 4 20 км ясно +25.0 +22.7 87 +33 +33 очень
душно
1007.4 1004.5
01 10.09 З 3 25 км ясно +24.4 +21.6 84 +31 +31 очень
душно
1007.5 1004.5
02 10.09 З 2 25 км ясно +22.5 +19.0 81 +28 +28 душно 1007.5 1004.4
03 10.09 СЗ 1 25 км ясно +21.8 +17.5 77 +26 +26 душно 1007.8 1004.7
04 10.09 СЗ 2 25 км 1/1 600 м
[Sc]
+22.0 +17.4 75 +26 +27 душно 1008.2 1005.2
05 10.09 СЗ 1 30 км ясно +24.1 +17.2 65 +28 +30 душно 1008.7 1005.7
06 10.09 С 1 30 км 1/1 900 м
[Cu hum]
+26.5 +20.8 71 +33 +39 очень
душно
1009.1 1006.1 +21.4
07 10.09 ЮЗ 2 30 км ясно +28.2 +20.5 63 +35 +45 очень
душно
1009.2 1006.2
08 10.09 ЮЗ 5 30 км 1/1 900 м
[Cu hum]
+28.1 +22.6 72 +37 +43 очень
душно
1009.3 1006.3
09 10.09 ЮЗ 6 30 км 1/1 900 м
[Cu hum]
+29.0 +23.0 70 +39 +44 очень
душно
1009.0 1006.0
10 10.09 ЮЗ 6 25 км 1/1 900 м
[Cu Sc]
+28.8 +22.5 69 +38 +44 очень
душно
1009.0 1006.0
11 10.09 ЮЗ 6 30 км осадки на расстоянии 1/1 600 м
[Cu Sc]
+28.3 +21.9 68 +36 +42 очень
душно
1008.7 1005.8
12 10.09 ЮЗ 6 25 км осадки на расстоянии 1/1 1050 м
[Cb cap Ac trans]
+29.1 +22.7 68 +38 +43 очень
душно
1008.6 1005.7
13 10.09 З 5 25 км осадки на расстоянии 1/1 1050 м
[Cb cap Ac trans]
+28.1 +21.9 69 +36 +40 очень
душно
1008.5 1005.5
14 10.09 З 6 25 км 1/1 1050 м
[Cu Sc]
+28.1 +22.1 70 +37 +38 очень
душно
1008.5 1005.6
15 10.09 З 6 25 км 1/1 1050 м
[Cu Sc Ci ing]
+27.9 +22.3 72 +37 +37 очень
душно
1008.4 1005.4
16 10.09 З 5 25 км 3/3 1200 м
[Sc Ci fib]
+26.7 +22.3 77 +35 +35 очень
душно
1008.3 1005.3
17 10.09 З 4 25 км 1/1 1200 м
[Sc]
+26.1 +21.9 78 +34 +34 очень
душно
1008.6 1005.6
18 10.09 З 5 25 км ясно +25.8 +22.0 80 +33 +33 очень
душно
1009.0 1006.0 +29.9
19 10.09 З 4 25 км ясно +25.6 +22.4 83 +34 +34 очень
душно
1009.2 1006.2
20 10.09 З 5 25 км ясно +25.4 +22.5 84 +33 +33 очень
душно
1009.3 1006.3
21 10.09 З 5 25 км ясно +25.4 +22.5 84 +33 +33 очень
душно
1009.4 1006.5
22 10.09 З 5 25 км ясно +25.2 +22.5 85 +33 +33 очень
душно
1009.5 1006.5
23 10.09 З 5 25 км ясно +25.0 +22.4 86 +33 +33 очень
душно
1009.3 1006.3
00 11.09 З 3 25 км ясно +24.5 +22.2 87 +32 +32 очень
душно
1009.3 1006.3
01 11.09 СЗ 1 25 км ясно +22.6 +20.3 87 +29 +29 очень
душно
1009.4 1006.4
02 11.09 СВ 1 25 км ясно +22.6 +20.0 85 +29 +29 очень
душно
1009.7 1006.6
03 11.09 С 1 25 км ясно +21.5 +19.5 88 +26 +26 душно 1010.2 1007.1
04 11.09 В 1 20 км ясно +21.6 +19.5 88 +27 +27 душно 1010.6 1007.6
05 11.09 С 2 18 км 1/1 480 м
[Cu hum]
+23.5 +19.3 77 +28 +30 душно 1011.3 1008.3
06 11.09 С 1 15 км 1/1 600 м
[Cu hum]
+26.1 +20.9 73 +33 +38 очень
душно
1011.7 1008.7 +21.1
07 11.09 ЮЗ 4 15 км 1/1 540 м
[Cu hum]
+27.6 +22.3 73 +36 +42 очень
душно
1012.2 1009.2
08 11.09 ЮЗ 5 18 км 1/1 600 м
[Cu hum]
+28.1 +22.4 71 +37 +43 очень
душно
1012.3 1009.4
09 11.09 ЮЗ 5 25 км 1/1 750 м
[Cu hum]
+27.8 +21.6 69 +36 +44 очень
душно
1012.3 1009.3
10 11.09 ЮЗ 5 20 км 1/1 900 м
[Cu med, cong]
+28.2 +21.5 67 +36 +43 очень
душно
1012.4 1009.4
11 11.09 ЮЗ 5 25 км 1/1 900 м
[Cu med, cong]
+28.8 +21.5 65 +37 +43 очень
душно
1012.3 1009.4
12 11.09 ЮЗ 5 25 км 1/1 1050 м
[Cu med, cong]
+28.5 +21.3 65 +36 +41 очень
душно
1011.9 1008.9
13 11.09 З 5 25 км 1/1 900 м
[Cu Sc]
+29.7 +21.8 63 +38 +42 очень
душно
1011.9 1009.0
14 11.09 ЮЗ 5 25 км 1/1 1050 м
[Cu Sc]
+29.0 +21.5 64 +37 +38 очень
душно
1011.8 1008.8
15 11.09 З 6 20 км 1/1 1050 м
[Cu med, cong]
+27.8 +22.2 72 +36 +37 очень
душно
1012.0 1009.0
16 11.09 З 6 20 км 1/1 1500 м
[Sc diur, vesp]
+26.5 +22.6 79 +35 +35 очень
душно
1012.0 1009.0
17 11.09 З 6 20 км 1/0 2000 м
[Ac trans]
+26.0 +22.6 82 +34 +34 очень
душно
1012.1 1009.1
18 11.09 З 5 20 км 1/0 2000 м
[Ac trans]
+25.7 +22.9 85 +34 +34 очень
душно
1012.4 1009.4 +30.0
19 11.09 З 6 20 км ясно +25.7 +23.0 85 +34 +34 очень
душно
1012.6 1009.6
20 11.09 З 5 20 км ясно +25.6 +23.4 88 +35 +35 очень
душно
1012.4 1009.4
21 11.09 З 5 20 км ясно +25.4 +22.9 86 +34 +34 очень
душно
1011.9 1008.9
22 11.09 З 3 20 км ясно +24.9 +22.0 84 +32 +32 очень
душно
1011.9 1008.9
23 11.09 СЗ 1 20 км ясно +23.9 +20.8 83 +30 +30 очень
душно
1011.5 1008.5
00 12.09 С 2 20 км ясно +23.4 +19.9 81 +30 +30 очень
душно
1011.4 1008.3
01 12.09 С 1 20 км ясно +22.8 +20.3 86 +30 +30 очень
душно
1011.1 1008.1
02 12.09 СЗ 1 20 км ясно +22.3 +18.3 78 +27 +27 душно 1011.1 1008.1
03 12.09 СЗ 2 20 км ясно +22.5 +17.1 72 +27 +27 душно 1011.4 1008.3
04 12.09 СЗ 2 30 км ясно +22.7 +16.5 68 +27 +27 душно 1011.7 1008.7
05 12.09 СЗ 2 40 км ясно +24.7 +15.0 55 +28 +29 душно 1011.9 1008.9
06 12.09 С 1 40 км ясно +27.6 +19.5 61 +33 +39 очень
душно
1012.1 1009.1 +21.9
07 12.09 З 3 40 км ясно +28.9 +21.7 65 +37 +45 очень
душно
1012.4 1009.4
08 12.09 Ю 4 35 км ясно +28.9 +20.7 61 +36 +45 очень
душно
1012.4 1009.4
09 12.09 З 6 35 км 1/1 660 м
[Cu hum Ac trans]
+29.6 +23.3 69 +40 +46 очень
душно
1012.3 1009.3
10 12.09 З 7 18 км 1/1 480 м
[Cu med, cong]
+28.8 +23.6 74 +39 +43 очень
душно
1012.2 1009.2
11 12.09 З 8 20 км 1/1 1200 м
[Cu med, cong]
+29.8 +24.6 74 +42 +45 опасность
перегрева
1011.6 1008.6
12 12.09 З 8 20 км 1/1 1200 м
[Cu med, cong]
+30.3 +24.2 70 +42 +44 опасность
перегрева
1011.1 1008.1
13 12.09 З 9 20 км 1/1 1200 м
[Cu med, cong]
+29.5 +24.6 75 +42 +42 опасность
перегрева
1010.7 1007.7
14 12.09 З 8 20 км 1/1 1200 м
[Cu hum Ac trans]
+28.3 +24.5 80 +40 +41 очень
душно
1010.4 1007.4
15 12.09 З 8-13
{13}
20 км 1/1 1200 м
[Cu med, cong Ac trans]
+28.3 +24.6 80 +40 +40 очень
душно
1010.1 1007.1
16 12.09 З 8 30 км 1/0
[Ac trans]
+27.7 +24.3 82 +39 +39 очень
душно
1010.0 1007.1
17 12.09 З 8
{13}
н/о н/о +27.2 +24.6 86 +39 +39 очень
душно
1010.1 1007.1
18 12.09 З 4 40 км ясно +27.4 +23.7 80 +37 +37 очень
душно
1010.7 1007.7 +30.4
19 12.09 З 5 40 км ясно +26.9 +23.4 81 +36 +36 очень
душно
1011.0 1008.0
20 12.09 З 3 40 км ясно +26.5 +22.3 78 +35 +35 очень
душно
1011.0 1008.0
21 12.09 З 3 50 км ясно +26.3 +18.9 64 +31 +31 душно 1010.6 1007.6
22 12.09 СЗ 2 50 км ясно +24.5 +16.4 61 +28 +28 душно 1010.4 1007.4
23 12.09 СЗ 2 н/о н/о +24.5 +15.0 55 +27 +27 жарко 1009.8 1006.8
00 13.09 З 2 50 км ясно +23.5 +14.2 56 +26 +26 жарко 1009.3 1006.3
01 13.09 З 2 50 км ясно +23.7 +15.8 61 +27 +27 жарко 1009.1 1006.1
02 13.09 З 2 50 км ясно +23.5 +18.2 72 +28 +28 душно 1008.9 1005.9
03 13.09 СВ 1 50 км ясно +22.5 +16.6 69 +27 +27 душно 1009.3 1006.3
04 13.09 В 1 50 км ясно +22.2 +13.9 59 +25 +25 комфорт 1009.5 1006.5
05 13.09 С 2 50 км ясно +24.9 +16.0 58 +28 +30 жарко 1009.7 1006.7
06 13.09 СВ 4 50 км ясно +28.2 +22.0 69 +36 +40 очень
душно
1009.8 1006.8 +21.9
07 13.09 В 4 40 км ясно +29.2 +23.4 71 +40 +45 очень
душно
1010.1 1007.1
08 13.09 Ю 4 35 км 1/1 840 м
[Cu hum]
+29.2 +22.4 67 +38 +47 очень
душно
1009.9 1006.9
09 13.09 Ю 3 30 км 1/1 900 м
[Cu hum]
+30.1 +20.5 56 +37 +48 очень
душно
1009.5 1006.5
10 13.09 З 5 20 км 1/1 1050 м
[Cu med, cong]
+29.5 +22.2 65 +38 +47 очень
душно
1009.5 1006.5
11 13.09 З 6 25 км 1/1 1050 м
[Cu med, cong]
+28.7 +23.0 71 +38 +43 очень
душно
1009.4 1006.4
12 13.09 З 5 25 км 1/1 540 м
[Cu Sc]
+28.6 +23.1 72 +38 +43 очень
душно
1008.9 1005.9
13 13.09 З 6 25 км 1/1 1050 м
[Cu Sc]
+28.8 +22.0 67 +37 +40 очень
душно
1008.4 1005.4
14 13.09 З 6 н/о н/о +28.5 +21.9 67 +37 +37 очень
душно
1008.2 1005.2
15 13.09 З 5 25 км 3/1 1500 м
[Sc diur, vesp Ac trans]
+28.1 +22.1 70 +37 +37 очень
душно
1007.8 1004.9
16 13.09 З 5 30 км 3/0
[Ac trans]
+26.7 +22.3 77 +35 +35 очень
душно
1007.8 1004.8
17 13.09 З 4 30 км 3/0
[Ac trans]
+26.1 +22.1 79 +34 +34 очень
душно
1008.0 1005.0
18 13.09 З 5 30 км 1/1 450 м
[Sc Ac trans]
+25.7 +22.6 83 +34 +34 очень
душно
1008.6 1005.6 +31.1
19 13.09 З 4 30 км 1/0
[Ac trans]
+25.3 +22.3 83 +33 +33 очень
душно
1008.5 1005.5
20 13.09 З 3 30 км ясно +24.9 +22.1 84 +32 +32 очень
душно
1008.6 1005.6
21 13.09 З 4 30 км ясно +24.9 +21.9 83 +32 +32 очень
душно
1008.3 1005.3
22 13.09 З 3 30 км ясно +24.7 +22.1 85 +32 +32 очень
душно
1008.1 1005.1
23 13.09 З 2 30 км ясно +23.8 +21.7 88 +30 +30 очень
душно
1007.7 1004.7
00 14.09 З 3 20 км 1/1 540 м
[Cu med, cong]
+23.8 +21.5 87 +30 +30 очень
душно
1007.3 1004.3
01 14.09 З 4 30 км ясно +24.1 +21.5 85 +31 +31 очень
душно
1007.1 1004.1
02 14.09 СВ 1 30 км 1/1 540 м
[Sc]
+22.1 +19.4 85 +28 +28 душно 1007.4 1004.4
03 14.09 С 1 30 км 1/1 480 м
[Sc]
+22.0 +19.8 87 +28 +28 душно 1007.6 1004.6
04 14.09 СЗ 2 25 км 1/1 480 м
[Sc]
+21.4 +19.0 86 +26 +26 душно 1007.7 1004.7
05 14.09 С 1 20 км 1/1 480 м
[Cu hum]
+22.8 +18.7 78 +29 +30 очень
душно
1008.1 1005.0
06 14.09 СЗ 2 20 км 1/1 540 м
[Sc]
+26.0 +20.9 74 +33 +37 очень
душно
1008.3 1005.3 +21.3
07 14.09 ЮЗ 3 20 км 1/1 660 м
[Cu Sc]
+27.2 +21.1 69 +34 +41 очень
душно
1008.5 1005.6
08 14.09 ЮЗ 4 20 км 1/1 900 м
[Cu med, cong]
+28.2 +21.0 65 +35 +44 очень
душно
1008.5 1005.5
09 14.09 ЮЗ 4 25 км 1/1 900 м
[Cu med, cong]
+28.2 +20.1 61 +34 +44 очень
душно
1008.1 1005.2
10 14.09 ЮЗ 4 25 км 1/1 900 м
[Cb calv]
+28.5 +20.8 63 +36 +45 очень
душно
1007.9 1004.9
11 14.09 ЮЗ 5 25 км 1/1 900 м
[Cb calv]
+28.4 +19.9 60 +35 +42 очень
душно
1007.7 1004.8
12 14.09 ЮЗ 5 25 км 1/1 1050 м
[Cu med, cong]
+29.0 +19.6 57 +35 +41 очень
душно
1007.3 1004.3
13 14.09 ЮЗ 5 25 км 1/1 900 м
[Cu med, cong]
+28.7 +20.2 60 +35 +38 очень
душно
1006.9 1004.0
14 14.09 ЮЗ 5 25 км 1/1 900 м
[Cb calv]
+28.6 +20.6 62 +35 +37 очень
душно
1006.9 1003.9
15 14.09 ЮЗ 6 25 км 1/1 900 м
[Cb calv]
+27.3 +20.2 65 +34 +34 очень
душно
1007.0 1004.1
16 14.09 З 5 н/о н/о +26.5 +20.8 71 +33 +33 очень
душно
1007.2 1004.2
17 14.09 З 5 20 км 1/0
[Ac trans]
+26.1 +20.7 72 +33 +33 очень
душно
1007.4 1004.4
18 14.09 З 5 25 км ясно +26.1 +20.5 71 +32 +32 очень
душно
1007.8 1004.8 +29.8
19 14.09 ЮЗ 2 30 км ясно +25.6 +20.3 73 +32 +32 очень
душно
1007.9 1004.9
20 14.09 З 3 30 км ясно +25.6 +20.8 75 +32 +32 очень
душно
1008.1 1005.1
21 14.09 З 2 30 км ясно +24.8 +20.4 77 +31 +31 очень
душно
1007.8 1004.8
22 14.09 З 2 20 км 1/1 540 м
[Sc]
+24.2 +19.8 76 +29 +29 душно 1007.9 1004.9
23 14.09 З 2 20 км 1/1 540 м
[Cu hum]
+24.0 +19.1 74 +29 +29 душно 1007.6 1004.6
00 15.09 З 2 20 км 1/1 540 м
[Cu med, cong]
+24.1 +19.8 77 +29 +29 душно 1007.2 1004.2
01 15.09 З 2 20 км ясно +23.0 +18.7 77 +29 +29 очень
душно
1007.0 1004.0
02 15.09 СЗ 2 25 км ясно +22.6 +18.2 76 +28 +28 душно 1007.1 1004.1
03 15.09 З 1 25 км зарница 1/1 750 м
[Cb cap]
+22.4 +18.3 78 +28 +28 душно 1007.3 1004.3
04 15.09 З 2 30 км 1/1 750 м
[Cb cap]
+22.7 +17.3 72 +28 +28 душно 1007.6 1004.6
05 15.09 З 2 30 км 1/1 900 м
[Cb cap Ac trans]
+25.0 +20.7 77 +31 +33 очень
душно
1008.1 1005.1
06 15.09 З 3 30 км 1/1 750 м
[Cb cap Ac trans]
+26.2 +21.2 74 +33 +37 очень
душно
1008.2 1005.3 +22.3
07 15.09 З 5 30 км 1/1 600 м
[Cb calv Ac trans]
+27.2 +21.6 71 +35 +39 очень
душно
1008.6 1005.6
08 15.09 ЮЗ 5 30 км 1/1 600 м
[Cu med, cong]
+27.8 +21.7 69 +36 +41 очень
душно
1008.7 1005.7
09 15.09 ЮЗ 6 30 км 1/1 660 м
[Cb cap Ac trans]
+28.6 +22.1 68 +37 +43 очень
душно
1008.3 1005.3
10 15.09 СВ 7 20 км гроза без осадков 9/9 600 м
[Cb cap]
+24.1 +16.8 64 +28 +28 душно 1009.6 1006.5
11 15.09 СЗ 3
{15}
50 км гроза без осадков 9/6 600 м
[Cb cap Ac trans]
+22.7 +18.1 75 +28 +31 душно 1009.0 1006.0
12 15.09 С 1 50 км в посл. час гроза 6/1 900 м
[Cb cap Ac trans]
+24.1 +17.8 68 +28 +36 душно 1009.0 1006.0 0.2
13 15.09 СВ 3 50 км 3/1 900 м
[Cb calv Ac trans Ci ing]
+27.0 +16.3 52 +30 +36 душно 1008.7 1005.7
14 15.09 СЗ 1 50 км 3/1 900 м
[Cu hum Ac trans]
+28.7 +17.3 50 +33 +36 очень
душно
1008.3 1005.3
15 15.09 Ю 2 40 км 4/3 1500 м
[Sc Ac trans]
+27.4 +17.9 56 +32 +32 очень
душно
1008.7 1005.8
17 15.09 З 2 40 км 4/4 1200 м
[Cu Sc]
+25.3 +18.1 64 +30 +30 душно 1009.2 1006.2
18 15.09 З 2 50 км 1/1 1500 м
[Sc]
+25.5 +19.2 68 +31 +31 очень
душно
1009.5 1006.5 +29.7 0.2
19 15.09 З 1 50 км ясно +24.4 +19.5 74 +30 +30 очень
душно
1009.7 1006.7
20 15.09 СЗ 2 50 км ясно +24.0 +18.4 71 +28 +28 душно 1009.5 1006.5
21 15.09 З 3 40 км ясно +23.8 +19.1 75 +29 +29 душно 1009.4 1006.4

 

Местоположение метеостанции Акротири (Кипр): широта 34.58 долгота 32.98 высота над уровнем моря 23 м.

В архиве по умолчанию представлена погода на Акротири за последнюю неделю. Архивные данные за месяц целиком и за предыдущие месяцы, начиная с января 2011 года, Вы можете получить, выбрав интересующий диапазон дат из раскрывающегося списка и нажав кнопку "Ввод!".


*Определитесь, кто Вы:
робот инопланетянин человек

Внимание! Время в таблицах - всемирное. Для получения местного времени необходимо прибавить поправку, которая равна 2 ч.

Смотрите также архив погоды в соседних городах и на ближайших метеорологических станциях:

Погода в Пафосе (Кипр) (48 км)
Погода в Ларнаке (Кипр) (68 км)
Погода в Аталассе (Кипр) (74 км)
Погода в Никосии (Кипр) (79 км)
Погода в Акденизе (Кипр) (80 км)
Погода в Киринии (Кипр) (91 км)
Погода на Базе ВВС Gecitkale (Кипр) (100 км)
Погода в Лефконико (Кипр) (101 км)
Погода в Unknown (Кипр) (104 км)
Погода в Фамагусте (Кипр) (108 км)

Пояснения к столбцам:

Ветер - указаны скорость ветра в м/с - средняя за 10 мин, порывы в срок и между сроками (в фигурных скобках) и направление, откуда дует ветер: С - северный, СВ - северо-восточный, В - восточный, ЮВ - юго-восточный, Ю - южный, ЮЗ - юго-западный, З - западный, СЗ - северо-западный.
Видимость - горизонтальная дальность видимости в метрах или километрах. При видимости от 1 до 10 км при отсутствии осадков обычно наблюдается дымка, при ухудшении видимости до 1 км и менее - туман. В сухую погоду видимость может ухудшаться дымом, пылью или мглою.
Явления - указаны атмосферные явления, наблюдавшиеся в срок или в последний час перед сроком; фигурными скобками обозначены явления, наблюдавшиеся между сроками (за 1-3 часа до срока); квадратными скобками обозначены град или гололедные отложения с указанием их диаметра в мм.
Облачность - указаны через наклонную черту общая и нижняя облачность в баллах и высота нижней границы облаков в метрах; квадратными скобками обозначены формы облаков: Ci - перистые, Cs - перисто-слоистые, Cc - перисто-кучевые, Ac - высококучевые, As - высокослоистые, Sc - слоисто-кучевые, Ns - слоисто-дождевые, Cu - кучевые, Cb - кучево-дождевые. Подробнее классификацию облаков см. в Атласе облаков (PDF).
T - Температура воздуха - температура, измеренная на высоте 2 м над землей.
Td - Температура точки росы - температура, при понижении до которой содержащийся в воздухе водяной пар достигнет насыщения.
f - Относительная влажность воздуха - влажноcть воздуха, измеренная на высоте 2 м над землей.
Te - Эффективная температура - температура, которую ощущает одетый по сезону человек в тени. Характеристика душности погоды. При расчете учитывается влияние влажности воздуха и скорости ветра на теплоощущения человека.
Tes - Эффективная температура на солнце - температура, которую ощущает человек, с поправкой на солнечный нагрев. Характеристика знойности погоды. Зависит от высоты солнца над горизонтом, облачности и скорости ветра. Ночью, в пасмурную погоду, а также при ветре 12 м/с и более поправка равна нулю.
P - Атмосферное давление - приведенное к уровню моря атмосферное давление.
Po - Атмосферное давление - измеренное на уровне метеостанции атмосферное давление.
Tmin - Минимальная температура - минимум температуры воздуха на высоте 2 м над землей.
Tmax - Максимальная температура - максимум температуры воздуха на высоте 2 м над землей.
R - Количество осадков - Количество выпавших осадков за период времени, мм. При наведении курсора мыши на число - период времени, за который выпало указанное количество осадков.
R24 - Количество осадков - Количество выпавших осадков за 24 часа, мм.
S - Снежный покров - Высота снежного покрова, см. При наведении курсора мыши на число - состояние снежного покрова и степень покрытия местности в баллах.